Selinsgrove, PA

7:37 AM EDT on July 28, 2017 (GMT -0400)
Penn Valley

Weather History for KSEG - March, 2013

Change the Weather History Date:

Monday, March 18, 2013

  Actual Average (KIPT) Record (KIPT)
Temperature  
Mean Temperature 28 °F -  
Max Temperature 34 °F 44 °F 74 °F (2011)
Min Temperature 25 °F 27 °F -5 °F (1916)
Degree Days  
Heating Degree Days 36    
Moisture  
Dew Point 24 °F    
Average Humidity 81    
Maximum Humidity 100    
Minimum Humidity 52    
Precipitation  
Precipitation 0.25 in - - ()
Sea Level Pressure  
Sea Level Pressure 30.14 in    
Wind  
Wind Speed 3 mph (SE)    
Max Wind Speed 13 mph    
Max Gust Speed 24 mph    
Visibility 5 miles    
Events Fog , Rain , Snow    
Averages and records for this station are not official NWS values.
T = Trace of Precipitation, MM = Missing Value Source: NWS Daily Summary

Daily Weather History Graph

Daily Weather History Graph

Search for Another Location

Airport or City:

Trip Planner

Search our weather history database for the weather conditions in past years. The results will help you decide how hot, cold, wet, or windy it might be!

Date:

Astronomy

Mar. 18, 2013 Rise Set
Actual Time 7:13 AM EDT 7:17 PM EDT
Civil Twilight 6:46 AM EDT 7:45 PM EDT
Nautical Twilight 6:14 AM EDT 8:17 PM EDT
Astronomical Twilight 5:42 AM EDT 8:49 PM EDT
Moon 11:09 AM EDT (3/18) 1:17 AM EDT (3/18)
Length of Visible Light 12h 58m
Length of Day
12h 03m
Waxing Crescent, 40% of the Moon is Illuminated
Mar 18
Waxing Crescent
Mar 19
First Quarter
Mar 27
Full
Apr 3
Last Quarter
Apr 10
New

Hourly Weather History & Observations

Time (EDT) Temp. Windchill Dew Point Humidity Pressure Visibility Wind Dir Wind Speed Gust Speed Precip Events Conditions
12:53 AM 28.0 °F - 19.9 °F 72% 30.30 in 10.0 mi Calm Calm - N/A   Clear
1:53 AM 28.0 °F - 18.0 °F 66% 30.32 in 10.0 mi Calm Calm - N/A   Clear
2:53 AM 26.1 °F 19.4 °F 19.0 °F 75% 30.33 in 10.0 mi NE 5.8 mph - N/A   Clear
3:53 AM 25.0 °F - 21.0 °F 85% 30.34 in 10.0 mi Calm Calm - N/A   Clear
4:53 AM 26.1 °F - 19.9 °F 78% 30.34 in 10.0 mi Calm Calm - N/A   Clear
5:53 AM 27.0 °F 23.0 °F 18.0 °F 69% 30.35 in 10.0 mi NNE 3.5 mph - N/A   Clear
7:53 AM 28.0 °F - 17.1 °F 63% 30.33 in 10.0 mi Calm Calm - N/A   Clear
8:53 AM 28.9 °F 21.1 °F 15.1 °F 56% 30.32 in 10.0 mi SSE 8.1 mph - N/A   Overcast
9:53 AM 30.9 °F 23.5 °F 15.1 °F 52% 30.31 in 10.0 mi SSE 8.1 mph - N/A   Overcast
10:53 AM 30.9 °F 22.8 °F 16.0 °F 54% 30.29 in 10.0 mi SSE 9.2 mph - N/A   Overcast
11:53 AM 30.9 °F 24.3 °F 19.0 °F 61% 30.26 in 10.0 mi SE 6.9 mph - N/A   Overcast
12:53 PM 32.0 °F 24.8 °F 17.1 °F 54% 30.25 in 10.0 mi SE 8.1 mph - 0.00 in   Overcast
1:53 PM 32.0 °F 24.8 °F 18.0 °F 56% 30.23 in 10.0 mi SE 8.1 mph - N/A   Overcast
2:53 PM 32.0 °F 22.5 °F 19.9 °F 61% 30.16 in 6.0 mi ESE 12.7 mph 24.2 mph 0.00 in Snow Light Snow
3:00 PM 30.2 °F 21.3 °F 19.4 °F 64% 30.13 in 1.8 mi SE 10.4 mph 24.2 mph 0.00 in Snow Light Snow
3:11 PM 30.2 °F 20.8 °F 23.0 °F 75% 30.13 in 1.0 mi SE 11.5 mph 17.3 mph 0.00 in Snow Light Snow
3:25 PM 30.2 °F 23.4 °F 24.8 °F 80% 30.14 in 0.5 mi Variable 6.9 mph - 0.00 in Snow Snow
3:42 PM 28.4 °F - 26.6 °F 93% 30.14 in 0.5 mi Calm Calm - 0.02 in Fog , Snow Snow
4:05 PM 28.4 °F - 26.6 °F 93% 30.11 in 0.2 mi Calm Calm - 0.02 in Fog , Snow Snow
4:53 PM 30.0 °F - 28.0 °F 92% 30.12 in 0.2 mi Calm Calm - 0.12 in Fog , Snow Snow
5:09 PM 28.4 °F - 28.4 °F 100% 30.09 in 0.5 mi Calm Calm - 0.02 in Fog , Snow Light Snow
5:48 PM 30.2 °F - 28.4 °F 93% 30.08 in 0.5 mi Calm Calm - 0.05 in Fog , Snow Light Snow
6:21 PM 30.2 °F - 28.4 °F 93% 30.06 in 0.5 mi Calm Calm - 0.02 in Fog , Snow Snow
6:53 PM 30.0 °F - 28.0 °F 92% 30.06 in 0.5 mi Calm Calm - 0.05 in Fog , Snow Light Snow
7:22 PM 30.2 °F - 28.4 °F 93% 30.03 in 1.2 mi Calm Calm - 0.02 in Snow Light Snow
7:53 PM 30.0 °F - 28.9 °F 96% 30.05 in 2.5 mi Calm Calm - 0.03 in Snow Light Snow
8:00 PM 30.2 °F - 28.4 °F 93% 30.03 in 3.0 mi Calm Calm - 0.00 in Snow Light Snow
8:11 PM 30.2 °F - 28.4 °F 93% 30.03 in 2.0 mi Calm Calm - 0.00 in Snow Light Snow
8:26 PM 30.2 °F - 28.4 °F 93% 30.02 in 3.0 mi Calm Calm - 0.00 in Snow Light Snow
8:33 PM 30.2 °F - 28.4 °F 93% 30.02 in 2.5 mi Calm Calm - 0.01 in Snow Light Snow
8:53 PM 30.9 °F 25.2 °F 28.9 °F 92% 30.03 in 2.0 mi SE 5.8 mph - 0.02 in Snow Light Snow
9:27 PM 30.2 °F - 30.2 °F 100% 30.00 in 3.0 mi Calm Calm - 0.01 in Snow Light Snow
9:53 PM 30.9 °F - 30.0 °F 96% 30.01 in 3.0 mi Calm Calm - 0.03 in Snow Light Snow
10:22 PM 30.2 °F - 30.2 °F 100% 29.97 in 4.0 mi Calm Calm - 0.00 in Rain Light Freezing Rain
10:50 PM 32.0 °F - 30.2 °F 93% 29.94 in 6.0 mi Calm Calm - 0.00 in   Overcast
10:53 PM 32.0 °F - 30.0 °F 92% 29.96 in 6.0 mi Calm Calm - 0.00 in   Overcast
11:12 PM 32.0 °F - 30.2 °F 93% 29.93 in 5.0 mi Calm Calm - 0.00 in   Overcast
11:53 PM 34.0 °F 27.2 °F 30.0 °F 85% 29.93 in 5.0 mi SSE 8.1 mph 16.1 mph 0.00 in   Overcast